Bilbao, Spain

3:37 AM CET en Noviembre 21, 2017 (GMT +0100)
Bilbao

Tiempo Historia de LEBB - Noviembre, 2017

Change the Weather History Date:

Martes, Noviembre 14, 2017

  Actual Average Record
Temperature  
Temperatura media 47 ° F -  
Temperatura máxima 55 ° F 57 ° F 75 ° F (2012)
Temperatura mínima 39 ° F 43 ° F 37 ° F (2000)
Degree Days  
Grados día de calefacción 18    
Moisture  
Punto de rocío 40 ° F    
Average Humidity 79    
Maximum Humidity 100    
Minimum Humidity 37    
Precipitación  
Precipitación 0.00 pul - - ()
Presión al nivel del mar  
Presión al nivel del mar 30.32 pul    
Viento  
Velocidad del viento 2 mph ()    
Velocidad máxima del viento 10 mph    
Max Gust Speed -    
Visibilidad 6.8 Millas    
Eventos      
Averages and records for this station are not official NWS values.
T = Trace of Precipitation, MM = Missing Value Source: Averaged Metar Reports

Daily Weather History Graph

Daily Weather History Graph

Search for Another Location

Airport or City:

Trip Planner

Search our weather history database for the weather conditions in past years. The results will help you decide how hot, cold, wet, or windy it might be!

Date:

Astronomía

Nov. 14, 2017 Salida Puesta
Hora real 8:03 AM CET 5:48 PM CET
Crepúsculo civil 7:32 AM CET 6:18 PM CET
Crepúsculo náutico 6:58 AM CET 6:53 PM CET
Crepúsculo astronómico 6:24 AM CET 7:26 PM CET
Luna 3:40 AM CET (11/14) 4:13 PM CET (11/14)
Horas de luz 10h 45m
Horas de luz
9h 44m
Creciente menguante, 15% of the Moon is Illuminated
Nov 14
Creciente menguante
Nov 18
Nueva
Nov 26
Cuarto creciente
Dic 3
Luna llena
Dic 10
Cuarto menguante

Hourly Weather History & Observations

Hora (CET) Temp. Vientos helados Punto de rocío Humedad Presión Visibilidad Wind Dir Velocidad del viento Velocidad de ráfagas Precip Eventos Condiciones
12:00 AM 42.8 ° F - 39.2 ° F 87% 30.33 pul 6.2 mi Sin viento Sin viento - N/A   Parcialmente nublado
12:30 AM 42.8 ° F - 39.2 ° F 87% 30.33 pul 6.2 mi Sin viento Sin viento - N/A   Desconocido
1:00 AM 42 ° F - 39 ° F 85% 30.35 pul - Sin viento Sin viento - -  
1:00 AM 42.8 ° F - 39.2 ° F 87% 30.33 pul 6.2 mi Sin viento Sin viento - N/A   Desconocido
1:30 AM 41.0 ° F - 39.2 ° F 93% 30.33 pul 6.2 mi Sin viento Sin viento - N/A   Parcialmente nublado
2:00 AM 42 ° F - 39 ° F 87% 30.34 pul - Sin viento Sin viento - -  
2:00 AM 41.0 ° F - 39.2 ° F 93% 30.33 pul 6.2 mi Sin viento Sin viento - N/A   Parcialmente nublado
2:30 AM 42.8 ° F - 41.0 ° F 93% 30.33 pul 6.2 mi Variable 1.2 mph - N/A   Parcialmente nublado
3:00 AM 42 ° F - 41 ° F 94% 30.34 pul - ESE 2.3 mph - -  
3:00 AM 42.8 ° F - 41.0 ° F 93% 30.33 pul 6.2 mi Variable 2.3 mph - N/A   Muy nublado
3:30 AM 42.8 ° F - 41.0 ° F 93% 30.33 pul 6.2 mi Variable 1.2 mph - N/A   Nubes dispersas
4:00 AM 42 ° F - 41 ° F 93% 30.33 pul - Este 2.3 mph - -  
4:00 AM 42.8 ° F - 41.0 ° F 93% 30.30 pul 6.2 mi Este 1.2 mph - N/A   Muy nublado
4:30 AM 42.8 ° F - 41.0 ° F 93% 30.30 pul 6.2 mi Sin viento Sin viento - N/A   Muy nublado
5:00 AM 42 ° F - 41 ° F 94% 30.33 pul - Sin viento Sin viento - -  
5:00 AM 41.0 ° F - 39.2 ° F 93% 30.30 pul 6.2 mi Sin viento Sin viento - N/A   Nubes dispersas
5:30 AM 42.8 ° F - 41.0 ° F 93% 30.30 pul 6.2 mi Sin viento Sin viento - N/A   Nubes dispersas
6:00 AM 42 ° F - 40 ° F 92% 30.33 pul - ESE 2.3 mph - -  
6:00 AM 41.0 ° F - 39.2 ° F 93% 30.30 pul 6.2 mi ESE 2.3 mph - N/A   Nubes dispersas
6:30 AM 42.8 ° F 41.1 ° F 41.0 ° F 93% 30.30 pul 6.2 mi Este 3.5 mph - N/A   Nubes dispersas
7:00 AM 42 ° F - 42 ° F 98% 30.33 pul 9 mi ESE 3.5 mph - -   Muy nublado
7:00 AM 42.8 ° F - 41.0 ° F 93% 30.30 pul 6.2 mi Variable 2.3 mph - N/A   Muy nublado
7:30 AM 42.8 ° F - 41.0 ° F 93% 30.33 pul 6.2 mi Variable 2.3 mph - N/A   Muy nublado
8:00 AM 43 ° F - 42 ° F 94% 30.35 pul - Sin viento Sin viento - -  
8:00 AM 41.0 ° F - 41.0 ° F 100% 30.33 pul 6.2 mi Variable 1.2 mph - N/A   Muy nublado
8:30 AM 42.8 ° F - 41.0 ° F 93% 30.33 pul 6.2 mi Sin viento Sin viento - N/A   Parcialmente nublado
9:00 AM 43 ° F - 42 ° F 95% 30.36 pul - Sin viento Sin viento - -  
9:00 AM 42.8 ° F - 41.0 ° F 93% 30.33 pul 6.2 mi Sin viento Sin viento - N/A   Parcialmente nublado
9:30 AM 44.6 ° F - 42.8 ° F 93% 30.33 pul 6.2 mi Este 1.2 mph - N/A   Parcialmente nublado
10:00 AM 48 ° F - 44 ° F 80% 30.37 pul 16 mi ESE 2.3 mph - -   Nubes dispersas
10:00 AM 46.4 ° F - 42.8 ° F 87% 30.36 pul 6.2 mi Variable 1.2 mph - N/A   Parcialmente nublado
10:30 AM 48.2 ° F - 42.8 ° F 82% 30.36 pul 6.2 mi Variable 1.2 mph - N/A   Parcialmente nublado
11:00 AM 52 ° F - 42 ° F 58% 30.37 pul - SE 2.3 mph - -  
11:00 AM 51.8 ° F - 41.0 ° F 67% 30.36 pul 6.2 mi Variable 2.3 mph - N/A   Parcialmente nublado
11:30 AM 51.8 ° F - 41.0 ° F 67% 30.36 pul 6.2 mi SSE 3.5 mph - N/A   Parcialmente nublado
12:00 PM 53 ° F - 40 ° F 51% 30.36 pul - SE 2.3 mph - -  
12:00 PM 53.6 ° F - 39.2 ° F 58% 30.36 pul 6.2 mi SE 3.5 mph - N/A   Nubes dispersas
12:30 PM 51.8 ° F - 41.0 ° F 67% 30.33 pul 6.2 mi Variable 1.2 mph - N/A   Nubes dispersas
1:00 PM 54 ° F - 40 ° F 47% 30.34 pul 16 mi NE 5.8 mph - -   Parcialmente nublado
1:00 PM 51.8 ° F - 41.0 ° F 67% 30.33 pul 6.2 mi Variable 4.6 mph - N/A   Nubes dispersas
1:30 PM 53.6 ° F - 39.2 ° F 58% 30.33 pul 6.2 mi ENE 4.6 mph - N/A   Nubes dispersas
2:00 PM 54 ° F - 35 ° F 37% 30.32 pul - NE 10.4 mph - -  
2:00 PM 53.6 ° F - 37.4 ° F 54% 30.30 pul 6.2 mi ENE 9.2 mph - N/A   Nubes dispersas
2:30 PM 53.6 ° F - 35.6 ° F 51% 30.30 pul 6.2 mi ENE 5.8 mph - N/A   Parcialmente nublado
3:00 PM 54 ° F - 38 ° F 42% 30.30 pul - Este 5.8 mph - -  
3:00 PM 53.6 ° F - 35.6 ° F 51% 30.30 pul 6.2 mi ENE 5.8 mph - N/A   Parcialmente nublado
3:30 PM 53.6 ° F - 37.4 ° F 54% 30.27 pul 6.2 mi ENE 8.1 mph - N/A   Parcialmente nublado
4:00 PM 53 ° F - 37 ° F 44% 30.30 pul 31 mi Este 8.1 mph - -   Nubes dispersas
4:00 PM 53.6 ° F - 37.4 ° F 54% 30.27 pul - Este 6.9 mph - N/A   Despejado
4:30 PM 53.6 ° F - 37.4 ° F 54% 30.27 pul - Este 8.1 mph - N/A   Despejado
5:00 PM 52 ° F - 37 ° F 46% 30.30 pul - Este 8.1 mph - -  
5:00 PM 51.8 ° F - 37.4 ° F 58% 30.27 pul - Este 6.9 mph - N/A   Despejado
5:30 PM 51.8 ° F - 37.4 ° F 58% 30.30 pul - Este 6.9 mph - N/A   Despejado
6:00 PM 49 ° F - 38 ° F 54% 30.30 pul - Este 3.5 mph - -  
6:00 PM 50.0 ° F - 39.2 ° F 66% 30.30 pul - Este 3.5 mph - N/A   Despejado
6:30 PM 46.4 ° F - 37.4 ° F 71% 30.30 pul - Variable 1.2 mph - N/A   Despejado
7:00 PM 45 ° F - 39 ° F 72% 30.31 pul 9 mi ESE 1.2 mph - -   Nubes dispersas
7:00 PM 44.6 ° F - 39.2 ° F 81% 30.30 pul - ESE 1.2 mph - N/A   Despejado
7:30 PM 42.8 ° F - 39.2 ° F 87% 30.30 pul - Variable 1.2 mph - N/A   Despejado
8:00 PM 42.8 ° F - 39.2 ° F 87% 30.30 pul - Sin viento Sin viento - N/A   Despejado
8:30 PM 41.0 ° F - 39.2 ° F 93% 30.30 pul 6.2 mi Este 1.2 mph - N/A   Nubes dispersas
9:00 PM 42 ° F - 39 ° F 87% 30.32 pul - Este 2.3 mph - -  
9:00 PM 41.0 ° F - 39.2 ° F 93% 30.30 pul 6.2 mi Variable 2.3 mph - N/A   Nubes dispersas
9:30 PM 41.0 ° F - 39.2 ° F 93% 30.30 pul 6.2 mi Este 1.2 mph - N/A   Nubes dispersas
10:00 PM 40 ° F - 38 ° F 88% 30.31 pul 9 mi Este 2.3 mph - -   Nubes dispersas
10:00 PM 39.2 ° F - 37.4 ° F 93% 30.30 pul 6.2 mi Variable 2.3 mph - N/A   Parcialmente nublado
10:30 PM 41.0 ° F 39.0 ° F 39.2 ° F 93% 30.30 pul 6.2 mi Este 3.5 mph - N/A   Parcialmente nublado
11:00 PM 39 ° F - 38 ° F 95% 30.31 pul - Este 3.5 mph - -  
11:00 PM 41.0 ° F 39.0 ° F 39.2 ° F 93% 30.30 pul 6.2 mi ESE 3.5 mph - N/A   Parcialmente nublado
11:30 PM 39.2 ° F - 37.4 ° F 93% 30.27 pul 6.2 mi Variable 2.3 mph - N/A   Parcialmente nublado